User: anonymous   Login
Location: Unspecified
(0.0000°N, 0.0000°E)
Time: 19:16:37
(UTC+00:00)
Language:

Hubble Space Telescope - Orbit

View from above orbital plane
View from above orbital plane
View from above satellite
View from above satellite

Ground track
Ground track

The orbit data is extracted from the following two-line orbital elements,

1 20580U 90037B   15143.88850284  .00001610  00000-0  92314-4 0  9992
2 20580 028.4710 314.3549 0002834 341.6417 166.0448 15.07401031176141
Epoch (UTC): 23 May 2015 21:19:26
Eccentricity: 0.0002834
inclination: 28.4710°
perigee height: 542 km
apogee height: 546 km
right ascension of ascending node: 314.3549°
argument of perigee: 341.6417°
revolutions per day: 15.07401031
mean anomaly at epoch: 166.0448°
orbit number at epoch: 17614

The dashed part of the orbit path shows where the satellite is in the earth's shadow,  

DLR